Time,TemperatureF,DewpointF,PressureIn,WindDirection,WindDirectionDegrees,WindSpeedMPH,WindSpeedGustMPH,Humidity,HourlyPrecipIn,Conditions,Clouds,dailyrainin,SoftwareType,DateUTC
2013-06-06 00:12:00,67.9,67.0,29.90,ENE,71,0.0,4.0,96,0.14,,,0.01,weatherlink.com 1.10,2013-06-06 05:12:00,
2013-06-06 00:27:00,67.8,67.0,29.90,East,98,0.0,1.0,97,0.15,,,0.02,weatherlink.com 1.10,2013-06-06 05:27:00,
2013-06-06 00:42:00,67.7,67.0,29.89,ESE,107,0.0,2.0,97,0.06,,,0.02,weatherlink.com 1.10,2013-06-06 05:42:00,
2013-06-06 00:57:00,67.4,67.0,29.86,East,95,1.0,1.0,97,0.02,,,0.02,weatherlink.com 1.10,2013-06-06 05:57:00,
2013-06-06 01:12:00,67.1,66.0,29.85,East,91,2.0,5.0,97,0.01,,,0.02,weatherlink.com 1.10,2013-06-06 06:12:00,
2013-06-06 01:27:00,67.1,67.0,29.82,East,83,2.0,4.0,98,0.00,,,0.02,weatherlink.com 1.10,2013-06-06 06:27:00,
2013-06-06 01:42:00,67.0,67.0,29.83,NW,305,0.0,1.0,98,0.00,,,0.02,weatherlink.com 1.10,2013-06-06 06:42:00,
2013-06-06 01:57:00,66.9,66.0,29.82,East,81,0.0,2.0,98,0.00,,,0.02,weatherlink.com 1.10,2013-06-06 06:57:00,
2013-06-06 02:12:00,67.2,67.0,29.80,East,84,1.0,2.0,98,0.01,,,0.03,weatherlink.com 1.10,2013-06-06 07:12:00,
2013-06-06 02:27:00,67.4,67.0,29.79,ESE,118,0.0,1.0,98,0.01,,,0.03,weatherlink.com 1.10,2013-06-06 07:27:00,
2013-06-06 02:42:00,67.0,67.0,29.79,WSW,248,0.0,1.0,98,0.01,,,0.03,weatherlink.com 1.10,2013-06-06 07:42:00,
2013-06-06 02:57:00,66.7,66.0,29.79,WSW,248,0.0,0.0,98,0.01,,,0.03,weatherlink.com 1.10,2013-06-06 07:57:00,
2013-06-06 03:12:00,66.8,66.0,29.79,WSW,248,0.0,0.0,98,0.00,,,0.03,weatherlink.com 1.10,2013-06-06 08:12:00,
2013-06-06 03:27:00,67.1,67.0,29.78,WSW,245,0.0,1.0,99,0.00,,,0.03,weatherlink.com 1.10,2013-06-06 08:27:00,
2013-06-06 03:42:00,66.9,66.0,29.78,WSW,245,0.0,0.0,98,0.00,,,0.03,weatherlink.com 1.10,2013-06-06 08:42:00,
2013-06-06 03:57:00,66.5,66.0,29.80,WSW,246,0.0,0.0,98,0.00,,,0.03,weatherlink.com 1.10,2013-06-06 08:57:00,
2013-06-06 04:12:00,66.8,67.0,29.80,West,276,0.0,0.0,99,0.00,,,0.03,weatherlink.com 1.10,2013-06-06 09:12:00,
2013-06-06 04:27:00,67.2,67.0,29.81,WSW,253,0.0,1.0,99,0.00,,,0.03,weatherlink.com 1.10,2013-06-06 09:27:00,
2013-06-06 04:42:00,67.2,67.0,29.82,WSW,257,0.0,3.0,99,0.00,,,0.03,weatherlink.com 1.10,2013-06-06 09:42:00,
2013-06-06 04:57:00,67.0,67.0,29.82,West,278,1.0,2.0,98,0.00,,,0.03,weatherlink.com 1.10,2013-06-06 09:57:00,
2013-06-06 05:12:00,67.1,67.0,29.82,West,263,0.0,1.0,99,0.00,,,0.03,weatherlink.com 1.10,2013-06-06 10:12:00,
2013-06-06 05:27:00,67.1,67.0,29.82,WSW,257,0.0,1.0,99,0.00,,,0.03,weatherlink.com 1.10,2013-06-06 10:27:00,
2013-06-06 05:42:00,67.1,67.0,29.82,West,280,0.0,0.0,99,0.00,,,0.03,weatherlink.com 1.10,2013-06-06 10:42:00,
2013-06-06 05:57:00,67.0,67.0,29.82,WNW,287,0.0,2.0,99,0.00,,,0.03,weatherlink.com 1.10,2013-06-06 10:57:00,
2013-06-06 06:12:00,66.9,67.0,29.81,ENE,63,0.0,1.0,99,0.00,,,0.03,weatherlink.com 1.10,2013-06-06 11:12:00,
2013-06-06 06:27:00,67.2,67.0,29.81,East,89,0.0,1.0,99,0.00,,,0.03,weatherlink.com 1.10,2013-06-06 11:27:00,
2013-06-06 06:42:00,67.5,67.0,29.81,WSW,248,0.0,1.0,99,0.00,,,0.03,weatherlink.com 1.10,2013-06-06 11:42:00,
2013-06-06 06:57:00,67.8,68.0,29.82,WSW,246,0.0,1.0,99,0.00,,,0.03,weatherlink.com 1.10,2013-06-06 11:57:00,
2013-06-06 07:12:00,68.3,68.0,29.82,East,98,0.0,1.0,99,0.00,,,0.03,weatherlink.com 1.10,2013-06-06 12:12:00,
2013-06-06 07:27:00,68.8,69.0,29.82,East,98,1.0,2.0,99,0.00,,,0.03,weatherlink.com 1.10,2013-06-06 12:27:00,
2013-06-06 07:42:00,69.1,69.0,29.81,ESE,113,1.0,4.0,98,0.00,,,0.03,weatherlink.com 1.10,2013-06-06 12:42:00,
2013-06-06 07:57:00,70.9,71.0,29.81,East,84,0.0,1.0,99,0.00,,,0.03,weatherlink.com 1.10,2013-06-06 12:57:00,
2013-06-06 08:13:00,72.3,71.0,29.82,West,278,1.0,1.0,95,0.00,,,0.03,weatherlink.com 1.10,2013-06-06 13:13:00,
2013-06-06 08:28:00,73.3,72.0,29.82,West,274,1.0,2.0,94,0.00,,,0.03,weatherlink.com 1.10,2013-06-06 13:28:00,
2013-06-06 08:43:00,74.1,72.0,29.83,WSW,250,0.0,2.0,93,0.00,,,0.03,weatherlink.com 1.10,2013-06-06 13:43:00,
2013-06-06 08:58:00,75.2,72.0,29.83,West,270,1.0,3.0,90,0.00,,,0.03,weatherlink.com 1.10,2013-06-06 13:58:00,
2013-06-06 09:13:00,74.5,72.0,29.83,West,280,1.0,4.0,91,0.00,,,0.03,weatherlink.com 1.10,2013-06-06 14:13:00,
2013-06-06 09:28:00,74.2,72.0,29.84,WNW,291,0.0,4.0,93,0.00,,,0.03,weatherlink.com 1.10,2013-06-06 14:28:00,
2013-06-06 09:43:00,74.0,72.0,29.84,SW,221,1.0,2.0,92,0.00,,,0.03,weatherlink.com 1.10,2013-06-06 14:43:00,
2013-06-06 09:58:00,75.7,73.0,29.84,SW,236,0.0,3.0,90,0.00,,,0.03,weatherlink.com 1.10,2013-06-06 14:58:00,
2013-06-06 10:13:00,77.1,73.0,29.83,WSW,253,3.0,3.0,87,0.00,,,0.03,weatherlink.com 1.10,2013-06-06 15:13:00,
2013-06-06 10:28:00,78.4,74.0,29.83,WSW,254,2.0,3.0,85,0.00,,,0.03,weatherlink.com 1.10,2013-06-06 15:28:00,
2013-06-06 10:43:00,78.9,73.0,29.82,West,275,1.0,3.0,81,0.00,,,0.03,weatherlink.com 1.10,2013-06-06 15:43:00,
2013-06-06 10:58:00,79.4,73.0,29.82,South,182,0.0,3.0,80,0.00,,,0.03,weatherlink.com 1.10,2013-06-06 15:58:00,
2013-06-06 11:13:00,79.9,73.0,29.81,WSW,248,1.0,3.0,80,0.00,,,0.03,weatherlink.com 1.10,2013-06-06 16:13:00,
2013-06-06 11:28:00,80.6,74.0,29.81,East,84,0.0,4.0,79,0.00,,,0.03,weatherlink.com 1.10,2013-06-06 16:28:00,
2013-06-06 11:43:00,79.9,72.0,29.81,NNW,333,5.0,5.0,77,0.00,,,0.03,weatherlink.com 1.10,2013-06-06 16:43:00,
2013-06-06 11:58:00,80.9,72.0,29.80,West,266,1.0,5.0,75,0.00,,,0.03,weatherlink.com 1.10,2013-06-06 16:58:00,
2013-06-06 12:13:00,81.0,73.0,29.80,WNW,291,2.0,3.0,76,0.00,,,0.03,weatherlink.com 1.10,2013-06-06 17:13:00,
2013-06-06 12:28:00,80.2,72.0,29.80,East,100,0.0,2.0,76,0.00,,,0.03,weatherlink.com 1.10,2013-06-06 17:28:00,
2013-06-06 12:43:00,81.1,73.0,29.79,WNW,288,2.0,2.0,77,0.00,,,0.03,weatherlink.com 1.10,2013-06-06 17:43:00,
2013-06-06 12:58:00,79.7,73.0,29.79,SE,131,0.0,7.0,81,0.00,,,0.03,weatherlink.com 1.10,2013-06-06 17:58:00,
2013-06-06 13:13:00,78.0,72.0,29.79,ENE,77,1.0,4.0,82,0.00,,,0.03,weatherlink.com 1.10,2013-06-06 18:13:00,
2013-06-06 13:28:00,78.9,72.0,29.78,ESE,115,3.0,5.0,80,0.00,,,0.03,weatherlink.com 1.10,2013-06-06 18:28:00,
2013-06-06 13:43:00,81.3,73.0,29.77,East,83,3.0,3.0,75,0.00,,,0.03,weatherlink.com 1.10,2013-06-06 18:43:00,
2013-06-06 13:58:00,82.4,73.0,29.77,East,82,2.0,6.0,74,0.00,,,0.03,weatherlink.com 1.10,2013-06-06 18:58:00,
2013-06-06 14:13:00,80.6,73.0,29.77,ENE,75,0.0,5.0,77,0.00,,,0.03,weatherlink.com 1.10,2013-06-06 19:13:00,
2013-06-06 14:28:00,82.9,73.0,29.76,East,83,2.0,4.0,73,0.00,,,0.03,weatherlink.com 1.10,2013-06-06 19:28:00,
2013-06-06 14:43:00,82.3,73.0,29.75,SE,130,2.0,5.0,73,0.00,,,0.03,weatherlink.com 1.10,2013-06-06 19:43:00,
2013-06-06 14:58:00,83.6,74.0,29.75,NW,308,3.0,6.0,73,0.00,,,0.03,weatherlink.com 1.10,2013-06-06 19:58:00,
2013-06-06 15:13:00,83.6,73.0,29.74,East,91,3.0,3.0,71,0.00,,,0.03,weatherlink.com 1.10,2013-06-06 20:13:00,
2013-06-06 15:28:00,82.9,73.0,29.74,NNW,333,3.0,5.0,73,0.00,,,0.03,weatherlink.com 1.10,2013-06-06 20:28:00,
2013-06-06 15:44:00,82.2,73.0,29.73,WSW,249,0.0,3.0,73,0.00,,,0.03,weatherlink.com 1.10,2013-06-06 20:44:00,
2013-06-06 15:59:00,82.4,74.0,29.72,South,172,1.0,3.0,76,0.00,,,0.03,weatherlink.com 1.10,2013-06-06 20:59:00,
2013-06-06 16:14:00,82.7,73.0,29.72,WNW,285,0.0,3.0,72,0.00,,,0.03,weatherlink.com 1.10,2013-06-06 21:14:00,
2013-06-06 16:29:00,82.4,74.0,29.73,WNW,288,1.0,1.0,75,0.00,,,0.03,weatherlink.com 1.10,2013-06-06 21:29:00,
2013-06-06 16:44:00,83.2,74.0,29.72,SE,133,0.0,1.0,73,0.00,,,0.03,weatherlink.com 1.10,2013-06-06 21:44:00,
2013-06-06 17:00:00,84.1,73.0,29.72,West,278,0.0,2.0,69,0.00,,,0.03,weatherlink.com 1.10,2013-06-06 22:00:00,
2013-06-06 17:14:00,82.7,73.0,29.72,West,273,0.0,2.0,73,0.00,,,0.03,weatherlink.com 1.10,2013-06-06 22:14:00,
2013-06-06 17:29:00,82.3,74.0,29.72,ENE,72,1.0,1.0,75,0.00,,,0.03,weatherlink.com 1.10,2013-06-06 22:29:00,
2013-06-06 17:44:00,85.1,74.0,29.72,North,351,0.0,3.0,69,0.00,,,0.03,weatherlink.com 1.10,2013-06-06 22:44:00,
2013-06-06 17:59:00,85.2,74.0,29.71,WNW,287,0.0,4.0,69,0.00,,,0.03,weatherlink.com 1.10,2013-06-06 22:59:00,
2013-06-06 18:14:00,85.5,73.0,29.71,WNW,295,0.0,2.0,66,0.00,,,0.03,weatherlink.com 1.10,2013-06-06 23:14:00,
2013-06-06 18:29:00,84.1,72.0,29.71,West,280,2.0,5.0,68,0.00,,,0.03,weatherlink.com 1.10,2013-06-06 23:29:00,
2013-06-06 18:44:00,84.2,73.0,29.72,NW,307,0.0,1.0,69,0.00,,,0.03,weatherlink.com 1.10,2013-06-06 23:44:00,
2013-06-06 18:59:00,82.1,73.0,29.72,WNW,284,0.0,2.0,74,0.00,,,0.03,weatherlink.com 1.10,2013-06-06 23:59:00,
2013-06-06 19:14:00,80.8,73.0,29.73,West,281,0.0,3.0,78,0.00,,,0.03,weatherlink.com 1.10,2013-06-07 00:14:00,
2013-06-06 19:29:00,79.4,73.0,29.74,SSE,152,0.0,1.0,81,0.00,,,0.03,weatherlink.com 1.10,2013-06-07 00:29:00,
2013-06-06 19:44:00,78.1,73.0,29.74,SSE,152,0.0,0.0,83,0.00,,,0.03,weatherlink.com 1.10,2013-06-07 00:44:00,
2013-06-06 19:59:00,76.7,73.0,29.74,SSE,153,0.0,0.0,87,0.00,,,0.03,weatherlink.com 1.10,2013-06-07 00:59:00,
2013-06-06 20:14:00,75.5,72.0,29.74,SSE,153,0.0,0.0,89,0.00,,,0.03,weatherlink.com 1.10,2013-06-07 01:14:00,
2013-06-06 20:29:00,74.9,72.0,29.74,SSE,153,0.0,0.0,91,0.00,,,0.03,weatherlink.com 1.10,2013-06-07 01:29:00,
2013-06-06 20:44:00,74.2,72.0,29.75,SSE,153,0.0,0.0,92,0.00,,,0.03,weatherlink.com 1.10,2013-06-07 01:44:00,
2013-06-06 20:59:00,73.5,71.0,29.75,SSE,154,0.0,1.0,93,0.00,,,0.03,weatherlink.com 1.10,2013-06-07 01:59:00,
2013-06-06 21:14:00,73.0,71.0,29.76,SSE,153,0.0,0.0,94,0.00,,,0.03,weatherlink.com 1.10,2013-06-07 02:14:00,
2013-06-06 21:29:00,73.2,71.0,29.76,West,260,0.0,4.0,94,0.00,,,0.03,weatherlink.com 1.10,2013-06-07 02:29:00,
2013-06-06 21:44:00,73.2,71.0,29.76,WNW,300,0.0,2.0,93,0.00,,,0.03,weatherlink.com 1.10,2013-06-07 02:44:00,
2013-06-06 21:59:00,72.8,71.0,29.76,West,280,0.0,3.0,93,0.00,,,0.03,weatherlink.com 1.10,2013-06-07 02:59:00,
2013-06-06 22:14:00,72.2,70.0,29.76,West,280,0.0,0.0,94,0.00,,,0.03,weatherlink.com 1.10,2013-06-07 03:14:00,
2013-06-06 22:29:00,71.7,70.0,29.76,West,280,0.0,0.0,95,0.00,,,0.03,weatherlink.com 1.10,2013-06-07 03:29:00,
2013-06-06 22:44:00,71.3,70.0,29.75,West,280,0.0,1.0,95,0.00,,,0.03,weatherlink.com 1.10,2013-06-07 03:44:00,
2013-06-06 23:00:00,71.0,70.0,29.75,West,281,0.0,1.0,96,0.00,,,0.03,weatherlink.com 1.10,2013-06-07 04:00:00,
2013-06-06 23:14:00,70.6,69.0,29.75,West,281,0.0,0.0,95,0.00,,,0.03,weatherlink.com 1.10,2013-06-07 04:14:00,
2013-06-06 23:29:00,70.1,69.0,29.75,West,281,0.0,0.0,96,0.00,,,0.03,weatherlink.com 1.10,2013-06-07 04:29:00,
2013-06-06 23:44:00,69.8,69.0,29.75,West,281,0.0,0.0,96,0.00,,,0.03,weatherlink.com 1.10,2013-06-07 04:44:00,
2013-06-06 23:59:00,69.5,69.0,29.74,NE,53,0.0,1.0,97,0.00,,,0.03,weatherlink.com 1.10,2013-06-07 04:59:00,